Location: Pompu
(39.7256°N, 8.7972°E)
Time: 13:08:47
(UTC+00:00)

Daily predictions for brighter satellites

Satellite Brightness Start Highest point End
(mag) Time Altitude Azimuth Time Altitude Azimuth Time Altitude Azimuth
Meteor 2-10 Rocket 4.0 16:57:30 10° NNW 17:02:48 68° W 17:07:51 10° S
CZ-4B R/B 1.9 17:03:27 10° NNE 17:06:31 37° E 17:09:29 10° SSE
NOAA 11 4.3 17:02:09 10° SSE 17:07:39 87° ENE 17:13:10 10° NNW
MOS 1 Rocket 3.8 17:04:24 10° NNE 17:08:18 33° E 17:12:17 10° SSE
AQUARIUS 4.4 17:04:05 10° S 17:08:34 77° WSW 17:13:05 10° NNW
Cosmos-2242 4.3 17:08:12 10° NNE 17:11:26 20° ENE 17:14:40 10° ESE
Cosmos 1937 Rocket 3.6 17:08:42 10° S 17:13:56 66° ESE 17:19:13 10° NNE
NOSS 3-1 (C) 4.2 17:06:23 10° NNW 17:14:01 66° NE 17:22:46 10° SE
Cosmos 1758 Rocket 4.3 17:10:52 10° SSE 17:14:52 34° E 17:18:55 10° NNE
COSMO-SKYMED 1 2.8 17:11:29 10° NNE 17:15:44 51° E 17:19:57 10° S
BREEZE-M DEB (TANK) 4.2 17:14:58 10° N 17:15:45 11° N 17:16:33 10° NNE
Aureole 3 2.8 17:16:07 10° N 17:19:08 77° W 17:22:07 10° S
USA 290 3.5 17:20:50 10° NNE 17:23:18 20° ENE 17:25:45 10° ESE
USA 276 4.4 17:23:41 10° SSE 17:25:09 13° SE 17:26:35 10° ESE
H-2A R/B 2.8 17:21:53 10° SE 17:26:11 29° ENE 17:30:35 10° N
Cosmos 1833 Rocket 3.1 17:22:06 10° N 17:27:20 38° ENE 17:32:32 10° SE
Cosmos 1939 Rocket 2.9 17:24:18 10° SSE 17:28:23 86° ENE 17:32:26 10° N
Helios 1A Rocket 4.2 17:25:49 10° ESE 17:28:51 20° ENE 17:31:54 10° NNE
Lacrosse 5 4.2 17:25:11 10° WNW 17:29:24 27° WSW 17:33:36 10° S
Cosmos 1602 Rocket 3.7 17:27:17 10° S 17:31:37 81° W 17:36:02 10° N
Cosmos 2026 Rocket 3.9 17:26:38 10° S 17:32:41 68° E 17:38:52 10° NNE
H-2A R/B 3.6 17:28:47 10° N 17:32:48 37° WNW 17:36:43 10° SW
Feng Yun 1-1 Rocket 4.2 17:28:10 10° SSE 17:33:36 73° ENE 17:39:12 10° N
SJ 16-02 4.0 17:32:04 10° WSW 17:35:12 19° WNW 17:38:20 10° NNW
USA 229 DEB 3.9 17:28:06 10° NNW 17:35:25 64° NE 17:43:04 10° SE
USA 229 4.0 17:28:12 10° NNW 17:35:31 63° NE 17:43:11 10° SE
CZ-3B R/B 3.0 17:33:08 10° NNW 17:36:07 38° NE 17:44:50 10° ESE
YAOGAN 1 3.2 17:33:51 10° SE 17:37:45 34° ENE 17:41:39 10° N
Cosmos 2112 Rocket 4.3 17:34:50 10° NNW 17:40:02 73° WSW 17:45:11 10° S
Cosmos 1689 Rocket 2.5 17:41:34 16° NE 17:43:28 36° E 17:46:07 10° SSE
Cosmos 1553 Rocket 4.3 17:38:20 10° N 17:44:24 44° ENE 17:50:21 10° SSE
Aureole 3 Rocket 2.7 17:41:30 10° N 17:44:54 66° E 17:49:17 10° SSE
Cosmos 1825 Rocket 3.6 17:42:24 10° S 17:46:40 55° E 17:51:00 10° NNE
COSMOS 2406 3.2 17:41:03 10° NNW 17:46:49 64° ENE 17:52:29 10° SE
Cosmos 2082 Rocket 2.9 17:42:04 10° N 17:47:06 31° ENE 17:51:40 12° ESE
IRS-1C Rocket 4.0 17:41:56 10° SSE 17:47:08 71° ENE 17:52:23 10° N
X-37B 1.1 17:47:23 10° WNW 17:50:26 43° NNE 17:51:36 29° ENE
Meteor 1-27 4.5 17:45:51 10° N 17:51:10 43° ENE 17:56:25 10° SSE
NOSS 3-1 (A) 4.1 17:43:29 10° NNW 17:51:11 70° NE 17:59:59 10° SE
ISS -1.3 17:51:54 10° NNW 17:52:58 11° N 17:53:50 10° NNE
Okean O Rocket 3.8 17:49:19 10° SSW 17:53:12 30° W 17:57:05 10° NW
Cosmos 1812 Rocket 4.0 17:49:54 10° NNW 17:54:14 66° W 17:58:31 10° S
CZ-4 R/B 1.3 17:53:22 10° SSE 17:57:23 66° ENE 18:01:20 10° N
CSL-04 Rocket 4.0 17:56:41 10° SE 18:01:43 41° ENE 18:06:50 10° N
Iridium 4 Rocket 3.5 17:57:18 10° N 18:02:35 83° W 18:07:22 10° S
ERS-2 2.2 18:00:08 10° N 18:03:46 76° WNW 18:07:22 10° SSW
Okean-O 2.5 18:00:26 10° SSE 18:04:50 71° ENE 18:09:15 10° N
Cosmos 1346 Rocket 3.0 18:05:52 10° SSW 18:09:46 72° W 18:13:43 10° N
Cosmos 1655 Rocket 4.1 18:03:55 10° SSE 18:09:52 50° E 18:15:49 10° NNE
Cosmos 2278 Rocket 2.6 18:04:46 10° SW 18:10:22 63° WNW 18:16:02 10° NNE
S3M 4.1 18:05:00 10° N 18:10:54 48° ENE 18:16:48 10° SSE
Cosmos 1953 Rocket 3.4 18:08:50 10° S 18:13:09 72° E 18:17:29 10° NNE
CZ-2C R/B 3.8 18:07:57 10° S 18:13:17 60° W 18:18:56 10° NNW
SWARM C 4.4 18:12:32 10° S 18:15:51 86° E 18:18:11 18° N
SWARM A 4.1 18:12:38 10° S 18:15:57 88° W 18:18:52 13° N
Cosmos 2292 Rocket 3.5 18:12:48 10° S 18:18:00 69° E 18:20:40 21° NNE
Cosmos 1892 3.2 18:14:36 10° SSE 18:17:22 39° SE 18:17:22 39° SE
Cosmos 44 Rocket 3.2 18:15:51 10° SSW 18:20:43 84° ESE 18:23:19 29° NE
SAR-Lupe-4 4.2 18:18:11 10° N 18:21:42 54° WNW 18:25:10 10° SSW
ARGOS 3.0 18:21:30 10° SSE 18:26:50 74° ENE 18:32:12 10° N
Cosmos 468 4.4 18:34:55 10° NNW 18:40:09 67° ENE 18:41:13 53° SE
CZ-2C R/B 2.6 18:34:44 10° NNE 18:40:22 78° ESE 18:45:58 10° S
Milstar 3 4.2 18:34:38 10° SW 18:42:04 26° SSE 18:44:24 22° SE
Cosmos 2150 Rocket 4.0 18:38:00 10° SSW 18:43:08 76° WNW 18:45:58 27° NNE
DMSP B5D2-2 4.3 18:45:59 52° SE 18:45:59 52° SE 18:50:19 10° S
Cosmos 1048 Rocket 3.8 18:43:58 10° NNW 18:49:08 80° ENE 18:49:37 72° SE
Cosmos 2297 3.5 18:45:16 10° SSW 18:50:54 72° ESE 18:51:24 67° ENE
SL-08 RB Rocket 4.0 18:59:19 60° NW 18:59:19 60° NW 19:03:08 10° NNW
H-2A R/B 3.7 19:01:01 10° SSW 19:05:29 32° W 19:10:06 10° NNW
Cosmos 1125 Rocket 3.8 19:02:40 10° SSW 19:07:50 63° WNW 19:08:41 54° NNW
Cosmos 2266 Rocket 4.3 19:05:54 10° SSW 19:12:05 64° W 19:18:12 10° N
USA 267 4.1 19:19:53 36° S 19:19:53 36° S 19:24:00 10° SSW
Cosmos 1943 Rocket 3.6 19:20:46 10° SSW 19:23:18 28° SSW 19:23:18 28° SSW
Cosmos 2082 Rocket 3.5 19:26:00 10° NW 19:31:13 38° WSW 19:33:42 25° SSW
